Wind_Speed
37 37 37 37 37 38 38 38 39 37 36 34 35 35 35 35 35 35 35 35 36 36 37 37 38 38 39 40 41 41 42 42 42 42 42 43 43 43 43 42 42 43 43 43
41 40 41 41 41 41 40 40 41 41 39 38 39 38 38 38 38 38 38 38 38 39 39 39 40 40 41 42 42 43 43 43 44 44 44 44 44 45 45 45 44 44 44 44
44 43 44 44 41 41 41 41 41 42 40 40 41 41 40 40 40 41 41 40 40 40 40 41 42 42 43 44 44 44 44 44 45 45 45 46 46 46 46 46 46 46 46 45
46 46 47 44 42 42 42 41 42 42 42 42 41 40 41 41 42 42 42 42 41 42 42 43 44 44 45 45 45 46 46 46 46 47 47 47 47 47 47 47 47 47 47 47
47 49 50 47 44 43 44 43 42 42 42 42 43 42 41 41 41 42 42 43 43 43 43 44 44 45 46 46 47 47 47 47 47 48 49 48 48 48 48 48 48 48 48 48
48 49 50 47 46 45 46 46 43 43 43 43 44 44 42 42 42 43 44 45 45 45 45 45 45 46 47 47 48 49 49 50 50 50 50 50 50 49 49 49 49 49 49 49
47 49 49 47 46 45 46 45 45 45 45 45 45 46 45 44 45 46 46 46 47 47 46 46 47 48 48 49 50 50 51 51 51 51 51 51 51 51 51 50 50 50 50 50
47 48 47 45 45 45 45 46 46 46 46 46 47 47 47 47 48 48 48 47 47 47 47 47 48 49 49 50 51 51 51 51 52 52 52 52 52 52 51 51 51 51 51 50
48 49 47 46 46 46 47 48 48 48 48 49 49 49 49 49 49 49 49 49 49 49 49 49 50 50 50 50 51 51 51 51 51 52 52 52 52 51 51 51 51 51 51 50
49 48 46 46 47 47 48 49 49 49 49 49 49 49 49 50 50 51 51 51 51 52 51 51 51 52 52 51 51 52 52 51 51 51 52 52 52 51 51 51 51 51 50 50
49 48 48 48 47 48 48 48 49 49 49 50 50 50 50 51 51 52 53 54 54 54 54 53 53 53 52 52 53 53 53 52 52 51 52 51 51 51 51 51 50 50 49 49
48 47 48 48 48 48 48 48 49 50 50 51 52 52 52 52 53 54 54 55 56 55 55 55 54 54 53 53 54 54 53 53 52 51 51 51 50 50 50 50 50 49 49 49
48 48 48 46 46 46 47 48 49 50 50 50 51 52 52 52 53 53 54 54 54 55 55 55 55 54 54 54 53 53 53 52 52 51 50 49 49 49 48 48 48 48 48 48
46 46 46 45 45 45 46 47 48 48 48 48 49 50 51 51 52 52 52 52 53 54 54 54 54 54 53 53 53 53 52 51 51 50 49 48 48 48 48 47 46 46 46 46
44 44 44 43 43 44 44 45 45 45 46 46 47 48 49 50 50 50 51 51 51 51 52 52 52 51 51 51 51 51 50 50 49 49 48 49 48 48 47 47 46 45 44 44
42 42 42 42 42 42 42 43 44 44 45 46 46 47 48 49 49 49 49 49 49 49 49 49 49 49 49 49 49 49 48 48 48 49 49 48 48 47 46 45 44 43 42 42
41 40 41 42 42 42 42 43 44 44 45 45 45 46 47 47 47 47 47 47 47 47 47 47 47 47 47 47 47 46 46 46 47 47 47 47 46 45 44 43 43 42 41 41
38 39 40 40 41 42 42 43 44 45 45 45 46 46 46 46 46 45 45 45 45 45 45 45 46 46 46 46 46 45 45 45 45 45 45 44 44 43 42 42 41 41 40 39
37 38 38 39 39 40 40 41 42 43 44 45 45 45 45 44 44 44 43 44 44 44 43 44 45 45 44 44 44 43 43 43 43 42 42 41 41 40 39 39 39 38 37 36
35 37 37 38 38 39 39 39 40 40 40 41 42 41 41 41 42 42 42 41 41 42 42 42 43 43 43 43 42 41 41 41 41 40 39 38 38 37 37 36 35 34 33 32
35 36 36 37 37 38 38 38 38 38 38 38 39 39 39 39 39 40 40 39 39 40 41 40 40 40 40 40 39 38 38 37 36 35 35 34 34 34 33 32 31 30 29 28
36 37 37 36 36 36 37 37 37 38 38 38 37 38 38 37 37 37 37 37 37 38 38 37 36 35 35 35 35 34 34 33 32 31 31 30 30 29 28 28 27 27 26 26
37 37 37 37 37 36 35 35 36 36 36 36 37 37 36 35 35 35 35 34 35 34 34 33 32 31 30 30 30 30 30 30 30 29 28 27 27 26 25 24 24 24 23 23
38 37 37 37 37 36 35 34 34 35 35 35 35 35 34 34 34 34 34 33 32 32 31 30 29 28 27 27 26 26 26 26 26 25 25 25 24 23 23 23 23 23 22 22
37 36 36 36 36 36 35 34 34 34 34 34 33 33 33 34 34 33 32 32 31 30 29 28 27 26 25 24 23 23 23 22 22 22 22 22 22 22 22 22 22 22 21 21
35 34 34 34 34 34 34 34 33 33 33 32 31 30 30 30 31 30 30 29 29 28 28 26 25 24 23 22 21 20 20 19 19 19 19 20 20 20 20 19 20 20 20 20
34 33 33 32 32 32 32 31 31 30 30 29 28 27 28 28 28 28 28 27 27 26 25 24 23 22 21 20 19 19 18 17 17 17 18 18 19 19 19 19 19 20 20 20
Wind_Direction
277 277 276 276 277 276 276 277 277 277 276 276 275 273 271 272 272 271 269 268 268 268 267 266 266 265 266 267 267 268 269 270 270 271 272 273 273 273 274 274 273 274 274 274
276 276 275 275 276 277 277 276 276 275 274 274 273 273 273 272 271 270 270 269 270 269 269 268 268 267 267 268 269 269 270 271 271 272 272 273 273 274 274 274 274 273 273 274
276 275 275 274 277 277 277 276 276 276 275 273 273 273 272 271 270 270 271 271 271 270 270 270 269 269 269 269 270 270 271 271 272 273 273 274 274 275 275 274 274 274 274 273
276 275 274 276 276 276 276 275 275 274 272 272 272 272 272 272 271 270 270 271 272 271 271 271 271 271 270 270 270 271 271 272 272 273 273 274 274 274 274 274 274 274 274 273
277 276 275 275 277 277 277 275 275 274 273 273 273 272 272 272 272 271 270 270 272 272 272 271 272 272 272 272 272 272 273 273 273 273 274 274 274 273 274 273 273 273 274 273
276 277 277 278 277 276 276 275 274 274 274 274 273 272 272 271 271 271 270 271 272 272 273 272 272 273 273 273 273 273 273 273 273 274 274 274 274 274 274 274 274 273 273 273
275 276 277 278 277 276 275 276 274 274 274 273 272 272 272 271 271 271 271 271 272 273 273 273 273 273 273 273 273 273 273 273 273 274 274 274 275 275 275 274 274 274 273 273
274 274 276 277 275 273 273 272 273 273 273 272 271 271 272 273 273 272 271 271 271 273 274 274 274 274 274 274 274 274 274 274 274 274 274 275 275 275 275 274 274 274 273 272
273 274 275 274 273 273 272 272 272 272 272 272 272 272 272 273 273 273 272 271 271 273 274 274 274 275 276 275 275 275 275 274 274 274 275 275 276 276 275 274 274 274 273 272
274 273 272 272 272 272 272 273 272 272 271 271 272 272 272 273 273 273 272 272 272 273 274 274 274 276 276 276 276 275 275 275 275 276 276 276 276 276 276 275 275 274 273 271
274 273 271 270 271 272 272 272 273 272 271 271 272 273 273 273 274 273 273 273 273 274 274 275 275 276 276 276 275 276 276 276 276 276 276 276 276 276 276 276 276 274 273 271
274 274 273 272 270 271 272 271 271 270 270 271 272 273 274 274 275 275 275 274 274 275 275 276 276 276 276 275 275 276 276 276 276 276 276 276 275 275 276 276 275 275 273 272
275 274 273 273 272 272 272 272 271 271 272 272 272 273 275 275 275 275 275 275 275 275 276 276 276 276 276 276 275 275 276 275 275 275 275 275 275 275 275 275 274 274 273 273
275 275 274 273 272 271 272 272 272 273 273 273 274 274 274 275 275 276 276 275 275 276 276 277 277 276 276 275 275 274 274 274 274 274 274 274 275 276 276 275 273 272 272 272
276 276 275 274 273 272 273 273 274 274 275 275 275 276 276 277 277 278 277 277 277 277 277 277 277 277 276 275 274 274 273 273 273 273 274 274 275 275 276 275 274 272 271 270
276 276 274 273 273 273 274 274 275 275 275 276 276 277 277 279 279 279 279 278 279 279 279 278 277 277 276 276 275 274 273 273 274 274 274 274 274 275 275 275 274 272 271 270
276 275 274 272 273 274 274 275 275 276 277 277 277 278 279 279 279 279 279 279 279 280 280 279 278 277 276 276 275 273 272 273 274 275 274 274 274 273 273 273 272 271 271 270
278 277 277 275 276 276 276 276 276 277 278 278 278 279 280 280 280 279 279 279 279 280 280 279 278 278 277 276 274 273 272 273 273 273 274 273 273 272 271 272 272 272 271 269
280 280 280 279 278 278 279 278 278 278 279 279 280 280 280 280 280 280 280 280 281 280 279 279 278 278 277 276 274 272 272 272 273 273 273 272 271 270 271 272 271 271 270 267
283 283 283 282 281 280 280 281 281 281 281 282 281 281 281 281 281 280 280 281 282 282 281 280 280 278 277 276 275 273 272 273 272 272 271 270 269 269 270 270 270 269 267 264
285 285 285 284 282 282 282 283 283 283 282 283 283 283 283 283 282 281 281 281 282 282 282 282 281 280 278 276 274 273 273 273 272 270 269 268 268 268 268 268 267 265 262 260
286 286 285 285 284 284 284 284 284 284 283 283 284 285 285 284 283 282 283 284 284 284 284 283 281 279 278 276 274 273 273 272 270 268 267 266 266 266 265 265 264 262 259 256
285 286 286 285 285 285 285 285 285 284 284 284 285 285 285 284 284 284 284 284 285 285 285 283 282 280 278 275 273 273 272 269 267 266 265 263 263 264 263 262 261 258 255 253
285 286 286 285 285 285 285 285 285 285 286 286 287 286 285 284 284 285 285 284 284 285 284 283 280 279 277 275 273 273 271 269 266 263 261 260 260 261 261 261 258 254 250 249
286 286 287 286 285 284 284 284 285 285 286 286 286 285 284 284 285 285 284 284 284 284 283 281 279 277 276 274 272 271 269 267 264 260 257 257 258 258 259 258 255 250 246 245
287 287 286 286 286 286 285 285 285 286 286 285 284 284 284 284 285 285 284 283 283 283 283 280 277 275 273 271 269 268 266 263 260 256 254 255 255 255 256 254 252 248 246 245
286 286 286 286 286 286 286 287 287 287 287 286 285 284 284 285 286 287 285 284 282 281 280 278 275 272 269 266 265 264 262 260 258 255 254 255 255 254 253 252 250 248 246 245
Height
5649 5648 5647 5646 5646 5644 5643 5642 5642 5643 5642 5644 5642 5640 5640 5640 5639 5639 5639 5639 5639 5639 5639 5638 5638 5638 5638 5638 5638 5638 5638 5638 5638 5638 5638 5638 5638 5637 5637 5636 5636 5636 5635 5635
5638 5638 5636 5635 5635 5634 5633 5632 5631 5631 5632 5632 5630 5630 5630 5630 5629 5629 5628 5628 5628 5628 5627 5627 5627 5627 5627 5627 5627 5626 5626 5626 5626 5626 5626 5626 5625 5625 5624 5624 5624 5623 5623 5623
5625 5625 5623 5624 5626 5624 5622 5621 5620 5619 5621 5619 5619 5618 5618 5618 5618 5617 5617 5617 5617 5616 5616 5615 5615 5615 5615 5615 5614 5614 5614 5614 5614 5613 5613 5613 5612 5612 5611 5611 5611 5611 5610 5610
5611 5611 5610 5615 5613 5612 5610 5609 5608 5607 5607 5607 5606 5606 5606 5606 5605 5605 5605 5604 5604 5604 5603 5603 5602 5602 5602 5602 5601 5601 5601 5601 5601 5600 5600 5599 5599 5598 5598 5597 5597 5597 5597 5597
5598 5596 5596 5601 5601 5599 5596 5596 5597 5595 5595 5594 5593 5593 5594 5593 5592 5592 5592 5592 5591 5591 5590 5590 5589 5589 5589 5588 5588 5587 5587 5587 5587 5586 5585 5585 5584 5584 5584 5583 5583 5583 5583 5583
5585 5583 5583 5588 5587 5584 5583 5583 5584 5582 5581 5581 5580 5580 5582 5581 5580 5579 5579 5578 5578 5577 5577 5577 5576 5575 5575 5575 5574 5573 5573 5572 5572 5571 5570 5570 5570 5569 5569 5568 5568 5568 5569 5569
5572 5569 5569 5573 5572 5571 5571 5571 5569 5568 5567 5567 5567 5567 5567 5567 5566 5565 5565 5564 5564 5564 5563 5563 5562 5561 5561 5560 5560 5559 5558 5557 5557 5556 5555 5555 5554 5554 5553 5553 5553 5553 5553 5553
5559 5556 5559 5560 5558 5558 5556 5555 5555 5554 5554 5553 5553 5553 5553 5553 5552 5551 5551 5550 5550 5550 5549 5548 5547 5547 5546 5546 5544 5543 5543 5542 5541 5540 5540 5539 5539 5538 5538 5537 5537 5537 5537 5538
5546 5547 5546 5545 5543 5542 5541 5541 5540 5540 5540 5539 5539 5539 5539 5538 5538 5537 5536 5536 5536 5535 5535 5534 5533 5531 5531 5530 5529 5528 5528 5527 5526 5525 5524 5523 5523 5522 5522 5522 5521 5521 5521 5522
5531 5532 5531 5530 5528 5527 5526 5526 5525 5525 5525 5524 5524 5524 5524 5524 5523 5522 5522 5521 5521 5520 5520 5519 5518 5516 5515 5514 5513 5512 5512 5511 5510 5509 5508 5508 5507 5506 5506 5506 5505 5505 5505 5505
5516 5517 5516 5516 5514 5513 5512 5511 5510 5510 5510 5509 5509 5509 5509 5508 5508 5507 5506 5505 5505 5504 5504 5503 5502 5501 5499 5498 5497 5496 5496 5495 5495 5494 5493 5492 5491 5491 5490 5490 5488 5488 5489 5489
5501 5502 5500 5501 5500 5499 5498 5497 5496 5495 5495 5495 5494 5494 5493 5493 5492 5491 5490 5489 5488 5487 5487 5486 5485 5484 5483 5482 5481 5480 5480 5479 5478 5477 5477 5476 5476 5476 5474 5474 5473 5472 5472 5472
5487 5486 5485 5486 5485 5484 5483 5483 5482 5481 5481 5480 5479 5478 5478 5477 5476 5475 5474 5473 5471 5471 5470 5470 5469 5468 5467 5465 5464 5464 5463 5463 5462 5461 5461 5460 5460 5459 5460 5459 5458 5457 5457 5457
5472 5471 5471 5471 5471 5470 5469 5468 5468 5467 5466 5465 5464 5463 5462 5462 5461 5460 5458 5457 5455 5454 5454 5453 5452 5451 5450 5448 5448 5447 5447 5447 5446 5446 5445 5445 5444 5444 5443 5443 5444 5444 5443 5442
5459 5458 5457 5457 5457 5456 5455 5454 5454 5453 5452 5451 5450 5449 5447 5446 5445 5444 5443 5441 5440 5439 5438 5437 5436 5435 5433 5432 5431 5431 5431 5431 5431 5431 5430 5430 5429 5429 5428 5428 5428 5429 5429 5429
5446 5445 5444 5444 5443 5443 5442 5441 5440 5440 5439 5437 5436 5435 5433 5432 5430 5429 5428 5426 5424 5424 5423 5421 5420 5419 5417 5416 5415 5415 5415 5415 5415 5415 5415 5415 5414 5414 5414 5413 5413 5414 5415 5415
5433 5433 5432 5431 5430 5430 5429 5428 5427 5426 5425 5424 5422 5421 5419 5418 5416 5415 5413 5411 5410 5409 5408 5406 5405 5404 5402 5401 5400 5400 5400 5400 5400 5400 5400 5400 5400 5399 5399 5399 5400 5400 5401 5401
5421 5420 5419 5418 5417 5417 5416 5415 5414 5412 5411 5410 5408 5407 5405 5404 5402 5401 5399 5398 5396 5395 5394 5392 5390 5389 5388 5387 5386 5385 5386 5386 5386 5385 5385 5385 5385 5386 5386 5386 5386 5387 5388 5388
5410 5409 5408 5406 5405 5404 5403 5402 5400 5399 5398 5396 5394 5393 5391 5390 5388 5387 5385 5384 5382 5381 5380 5378 5376 5374 5373 5372 5371 5371 5371 5371 5371 5371 5371 5371 5372 5372 5373 5373 5374 5374 5375 5376
5400 5398 5396 5395 5393 5392 5390 5389 5388 5386 5385 5382 5380 5379 5378 5376 5375 5373 5372 5370 5369 5367 5365 5363 5362 5360 5359 5358 5357 5357 5358 5358 5358 5358 5358 5358 5359 5360 5361 5361 5362 5363 5364 5365
5389 5387 5385 5384 5382 5381 5379 5377 5375 5374 5372 5370 5368 5366 5365 5364 5362 5360 5358 5358 5357 5353 5351 5350 5348 5347 5346 5345 5344 5345 5345 5345 5345 5346 5346 5347 5348 5349 5350 5351 5351 5352 5353 5355
5379 5377 5375 5373 5371 5369 5368 5366 5364 5362 5360 5358 5356 5354 5353 5351 5350 5348 5347 5345 5344 5341 5339 5337 5336 5334 5333 5333 5333 5333 5334 5334 5334 5335 5335 5336 5338 5339 5340 5341 5342 5343 5345 5346
5367 5365 5364 5362 5360 5358 5357 5355 5353 5350 5349 5347 5345 5343 5341 5339 5338 5336 5336 5335 5332 5330 5328 5326 5325 5323 5323 5322 5323 5323 5323 5324 5324 5325 5326 5327 5329 5330 5331 5332 5334 5335 5337 5338
5356 5354 5352 5350 5348 5347 5345 5344 5342 5340 5338 5336 5334 5332 5330 5328 5327 5326 5324 5323 5321 5319 5318 5316 5315 5314 5313 5313 5314 5314 5314 5315 5315 5316 5317 5319 5320 5322 5323 5324 5326 5328 5329 5331
5345 5343 5341 5339 5337 5335 5334 5333 5331 5329 5327 5326 5324 5322 5320 5318 5317 5316 5314 5313 5311 5309 5308 5307 5306 5306 5305 5305 5306 5306 5306 5307 5308 5309 5310 5312 5313 5314 5316 5317 5319 5320 5322 5325
5334 5332 5330 5328 5326 5324 5323 5321 5320 5319 5317 5315 5314 5313 5310 5308 5307 5305 5304 5303 5302 5300 5299 5299 5298 5298 5298 5298 5299 5299 5299 5300 5301 5302 5304 5305 5306 5308 5309 5311 5312 5314 5316 5318
5323 5321 5320 5318 5317 5314 5312 5311 5309 5308 5307 5305 5304 5303 5301 5300 5298 5296 5295 5294 5293 5292 5291 5290 5290 5290 5291 5291 5292 5293 5293 5294 5295 5296 5298 5299 5300 5302 5303 5304 5306 5308 5310 5312